Change the Weather History Date:

Friday, May 16, 2014

  Actual Average Record
Temperature  
Mean Temperature 59 °F 57 °F  
Max Temperature 67 °F 70 °F 90 °F (1988)
Min Temperature 51 °F 43 °F 36 °F (2009)
Degree Days  
Heating Degree Days 6 9  
Month to date heating degree days 216 179  
Since 1 July heating degree days 7562 7578  
Cooling Degree Days 0 1  
Month to date cooling degree days 0 1  
Year to date cooling degree days 0 2  
Growing Degree Days 9 (Base 50)    
Moisture  
Dew Point 35 °F    
Average Humidity 46    
Maximum Humidity 66    
Minimum Humidity 26    
Precipitation  
Precipitation T in 0.05 in 0.26 in (2000)
Month to date precipitation 0.43 0.64  
Year to date precipitation 1.58 2.16  
Sea Level Pressure  
Sea Level Pressure 30.01 in    
Wind  
Wind Speed 14 mph (NW)    
Max Wind Speed 32 mph    
Max Gust Speed 37 mph    
Visibility 10 miles    
Events      
T = Trace of Precipitation, MM = Missing Value Source: NWS Daily Summary

Daily Weather History Graph

Daily Weather History Graph

Search for Another Location

Airport or City:

Trip Planner

Search our weather history database for the weather conditions in past years. The results will help you decide how hot, cold, wet, or windy it might be!

Date:

Astronomy

May. 16, 2014 Rise Set
Actual Time 5:43 AM MDT 8:34 PM MDT
Civil Twilight 5:09 AM MDT 9:08 PM MDT
Nautical Twilight 4:26 AM MDT 9:51 PM MDT
Astronomical Twilight 3:36 AM MDT 10:42 PM MDT
Moon 10:44 PM MDT (5/16) 7:28 AM MDT (5/16)
Length of Visible Light 15h 58m
Length of Day
14h 50m
Waning Gibbous, 95% of the Moon is Illuminated
May 16
Waning Gibbous
May 21
Last Quarter
May 28
New
Jun 5
First Quarter
Jun 12
Full

Hourly Weather History & Observations

Time (MDT) Temp. Dew Point Humidity Pressure Visibility Wind Dir Wind Speed Gust Speed Precip Events Conditions
12:53 AM 55.9 °F 39.0 °F 53% 29.96 in 10.0 mi Calm Calm - N/A   Partly Cloudy
2:53 AM 53.1 °F 42.1 °F 66% 30.00 in 10.0 mi NNW 19.6 mph - N/A   Clear
3:53 AM 54.0 °F 41.0 °F 62% 30.00 in 10.0 mi NW 24.2 mph 32.2 mph N/A   Clear
4:53 AM 53.1 °F 37.0 °F 55% 30.00 in 10.0 mi NNW 28.8 mph 36.8 mph N/A   Clear
5:53 AM 52.0 °F 36.0 °F 54% 30.02 in 10.0 mi NW 23.0 mph - N/A   Clear
6:53 AM 52.0 °F 36.0 °F 54% 30.05 in 10.0 mi NW 20.7 mph 28.8 mph N/A   Clear
7:53 AM 54.0 °F 36.0 °F 51% 30.07 in 10.0 mi NNW 18.4 mph 24.2 mph N/A   Scattered Clouds
8:53 AM 55.0 °F 35.1 °F 47% 30.09 in 10.0 mi NNW 19.6 mph 32.2 mph N/A   Clear
9:53 AM 55.9 °F 36.0 °F 47% 30.10 in 10.0 mi NNW 24.2 mph 33.4 mph N/A   Overcast
10:53 AM 57.9 °F 34.0 °F 41% 30.10 in 10.0 mi NNW 20.7 mph - N/A   Mostly Cloudy
11:53 AM 61.0 °F 33.1 °F 35% 30.09 in 10.0 mi NW 16.1 mph 24.2 mph N/A   Overcast
12:53 PM 63.0 °F 32.0 °F 31% 30.06 in 10.0 mi NNW 15.0 mph 27.6 mph N/A   Overcast
2:53 PM 66.0 °F 32.0 °F 28% 30.03 in 10.0 mi NNW 13.8 mph - N/A   Scattered Clouds
3:53 PM 66.0 °F 30.9 °F 27% 30.00 in 10.0 mi NW 9.2 mph - N/A   Clear
4:53 PM 66.0 °F 30.9 °F 27% 29.98 in 10.0 mi Variable 5.8 mph - N/A   Clear
5:53 PM 66.9 °F 32.0 °F 27% 29.96 in 10.0 mi NW 5.8 mph - N/A   Mostly Cloudy
6:53 PM 64.9 °F 33.1 °F 31% 29.96 in 10.0 mi NW 9.2 mph - N/A   Clear
7:53 PM 63.0 °F 34.0 °F 34% 29.96 in - NNW 6.9 mph - N/A   Unknown
9:53 PM 61.0 °F 36.0 °F 39% 29.96 in 10.0 mi West 3.5 mph - N/A   Overcast
10:53 PM 59.0 °F 37.9 °F 46% 29.96 in 10.0 mi South 4.6 mph - 0.00 in   Overcast
11:53 PM 57.9 °F 37.9 °F 47% 29.95 in 10.0 mi WSW 3.5 mph - N/A   Overcast